This demonstration page uses our WeatherBlox Daily Observations layout. Learn more.

Left ArrowRight Arrow

Hourly Observations for November 12, 2015

Temp ( °F °C ) Dew Point ( °F °C ) Humidity (%) Winds ( mph kmh ) Pressure ( in mb ) Visibility ( mi km ) Precip ( " mm )
12:53 am 00:53 Partly Cloudy 37 2.8 30 -1.1 76 76 WNW 18 30 29.92 1013 10 16 0.00 0.00
1:53 am 01:53 Clear 37 2.8 30 -1.1 76 76 W 15 24 29.96 1015 10 16 0.00 0.00
2:53 am 02:53 Clear 36 2.2 29 -1.7 76 76 WNW 17 28 29.99 1016 10 16 0.00 0.00
3:53 am 03:53 Clear 35 1.7 28 -2.2 76 76 WNW 14 22 30.01 1016 10 16 0.00 0.00
4:53 am 04:53 Clear 35 1.7 28 -2.2 76 76 WNW 14 22 30.03 1017 10 16 0.00 0.00
5:53 am 05:53 Clear 35 1.7 27 -2.8 72 72 WNW 15 24 30.06 1018 10 16 0.00 0.00
6:53 am 06:53 Clear 35 1.7 26 -3.3 70 70 W 13 20 30.10 1019 10 16 0.00 0.00
7:53 am 07:53 Sunny 35 1.7 26 -3.3 70 70 WNW 14 22 30.14 1021 10 16 0.00 0.00
8:53 am 08:53 Sunny 38 3.3 28 -2.2 68 68 WNW 15 24 30.18 1022 10 16 0.00 0.00
9:53 am 09:53 Sunny 43 6.1 30 -1.1 60 60 NW 18 30 30.20 1023 10 16 0.00 0.00
10:53 am 10:53 Sunny 47 8.3 31 -0.6 54 54 NW 21 33 30.21 1023 10 16 0.00 0.00
11:53 am 11:53 Sunny 49 9.4 30 -1.1 48 48 NW 22 35 30.21 1023 10 16 0.00 0.00
12:53 pm 12:53 Sunny 51 10.6 29 -1.7 43 43 NW 20 31 30.20 1023 10 16 0.00 0.00
1:53 pm 13:53 Sunny 52 11.1 28 -2.2 40 40 NW 16 26 30.21 1023 10 16 0.00 0.00
2:53 pm 14:53 Sunny 52 11.1 27 -2.8 38 38 WNW 18 30 30.21 1023 10 16 0.00 0.00
6:59 pm 18:59 undefined N/A N/A N/A undefined N/A N/A N/A 0.00 0.00
7:53 pm 19:53 Clear 36 2.2 26 -3.3 67 67 W 6 9 30.30 1026 10 16 0.00 0.00
8:53 pm 20:53 Mostly Clear 33 0.6 23 -5 66 66 W 7 11 30.30 1026 10 16 0.00 0.00
9:53 pm 21:53 Cloudy 37 2.8 25 -3.9 62 62 WSW 6 9 30.30 1026 10 16 0.00 0.00
10:53 pm 22:53 Clear 34 1.1 25 -3.9 70 70 SW 5 7 30.30 1026 10 16 0.00 0.00
11:53 pm 23:53 Clear 33 0.6 24 -4.4 70 70 W 5 7 30.30 1026 10 16 0.00 0.00

Powered by AerisWeather